JAL208 RJGG-RJTT

Flight info

Callsign JAL208
Flight time N/A
Altitude 25000
Route BOGON Y23 ARTIC Y71 XAC
Aircraft A359/H-Q/LB1D1

Departure

Time N/A
Airport Chubu Centrair International Airport (RJGG)

Arrival

Time 2026-05-01 07:43
Airport Tokyo Haneda International Airport (RJTT)
Time Latitude Longitude Altitude Speed Heading
2026-05-01 07:23 34.75839 139.51764 15000 ft 488 kts 64°
2026-05-01 07:23 34.79157 139.58798 14036 ft 478 kts 64°
2026-05-01 07:24 34.80766 139.62272 13780 ft 464 kts 64°
2026-05-01 07:24 34.82441 139.65543 13717 ft 447 kts 55°
2026-05-01 07:24 34.84571 139.68186 13694 ft 429 kts 35°
2026-05-01 07:24 34.87122 139.69904 13612 ft 410 kts 20°
2026-05-01 07:25 34.89704 139.71219 13476 ft 395 kts 18°
2026-05-01 07:25 34.92215 139.72443 13330 ft 382 kts 17°
2026-05-01 07:25 34.94653 139.73621 13150 ft 371 kts 17°
2026-05-01 07:25 34.97022 139.74764 12948 ft 361 kts 17°
2026-05-01 07:26 34.99186 139.76248 12778 ft 354 kts 39°
2026-05-01 07:26 35.00979 139.78254 12621 ft 348 kts 45°
2026-05-01 07:26 35.02702 139.80331 12382 ft 347 kts 45°
2026-05-01 07:26 35.04409 139.82393 12119 ft 345 kts 45°
2026-05-01 07:27 35.06113 139.84443 11864 ft 342 kts 45°
2026-05-01 07:27 35.07799 139.86476 11620 ft 340 kts 46°
2026-05-01 07:27 35.09136 139.88803 11359 ft 331 kts 73°
2026-05-01 07:27 35.09446 139.91448 11265 ft 304 kts 108°
2026-05-01 07:28 35.08738 139.93752 11438 ft 284 kts 132°
2026-05-01 07:28 35.08011 139.96150 11576 ft 330 kts 108°
2026-05-01 07:28 35.08177 139.99006 11580 ft 351 kts 78°
2026-05-01 07:28 35.09371 140.01565 11468 ft 347 kts 47°
2026-05-01 07:29 35.11135 140.03535 11166 ft 341 kts 47°
2026-05-01 07:29 35.12718 140.05672 10873 ft 336 kts 49°
2026-05-01 07:29 35.14307 140.07739 10631 ft 330 kts 46°
2026-05-01 07:29 35.15936 140.09701 10440 ft 327 kts 44°
2026-05-01 07:30 35.17620 140.11560 10290 ft 325 kts 40°
2026-05-01 07:30 35.19367 140.13311 10137 ft 324 kts 37°
2026-05-01 07:30 35.21178 140.14937 9998 ft 322 kts 33°
2026-05-01 07:30 35.23051 140.16418 9737 ft 319 kts 29°
2026-05-01 07:31 35.24985 140.17740 9374 ft 317 kts 25°
2026-05-01 07:31 35.31049 140.20401 8422 ft 302 kts
2026-05-01 07:32 35.35143 140.21627 7999 ft 303 kts 13°
2026-05-01 07:32 35.37164 140.22189 7971 ft 300 kts
2026-05-01 07:33 35.41228 140.21860 7979 ft 291 kts 346°
2026-05-01 07:33 35.43242 140.21565 7973 ft 292 kts 347°
2026-05-01 07:33 35.47280 140.21066 7815 ft 289 kts 348°
2026-05-01 07:34 35.49290 140.20842 7359 ft 291 kts 349°
2026-05-01 07:34 35.53291 140.20334 6969 ft 285 kts 341°
2026-05-01 07:34 35.55166 140.19775 6861 ft 271 kts 337°
2026-05-01 07:35 35.56960 140.19148 6615 ft 265 kts 335°
2026-05-01 07:35 35.58541 140.18151 6276 ft 248 kts 309°
2026-05-01 07:35 35.59567 140.16552 5985 ft 232 kts 291°
2026-05-01 07:35 35.60321 140.14840 5753 ft 220 kts 282°
2026-05-01 07:36 35.60591 140.13111 5613 ft 196 kts 264°
2026-05-01 07:36 35.60601 140.11446 5521 ft 193 kts 261°
2026-05-01 07:36 35.60577 140.09800 5340 ft 193 kts 261°
2026-05-01 07:36 35.60555 140.08149 5084 ft 194 kts 261°
2026-05-01 07:37 35.60530 140.04830 4558 ft 192 kts 261°
2026-05-01 07:37 35.60525 140.03246 4369 ft 179 kts 261°
2026-05-01 07:37 35.60520 140.01760 4036 ft 170 kts 260°
2026-05-01 07:38 35.60509 140.00321 3781 ft 167 kts 260°
2026-05-01 07:38 35.60497 139.98894 3526 ft 167 kts 260°
2026-05-01 07:38 35.60484 139.96134 3071 ft 150 kts 259°
2026-05-01 07:39 35.60481 139.94908 2855 ft 143 kts 258°
2026-05-01 07:39 35.60470 139.93684 2653 ft 142 kts 258°
2026-05-01 07:39 35.60448 139.91248 2236 ft 143 kts 258°
2026-05-01 07:40 35.60438 139.90022 2034 ft 143 kts 259°
2026-05-01 07:40 35.60431 139.88804 1826 ft 142 kts 258°
2026-05-01 07:40 35.60420 139.87569 1621 ft 146 kts 259°
2026-05-01 07:40 35.60415 139.86360 1446 ft 137 kts 259°
2026-05-01 07:41 35.60414 139.85228 1207 ft 128 kts 258°
2026-05-01 07:41 35.60392 139.84161 992 ft 123 kts 254°
2026-05-01 07:41 35.59939 139.82141 645 ft 126 kts 240°
2026-05-01 07:42 35.59539 139.81174 583 ft 131 kts 233°
2026-05-01 07:42 35.59066 139.80231 558 ft 128 kts 230°
2026-05-01 07:42 35.58548 139.79387 431 ft 119 kts 210°
2026-05-01 07:42 35.57948 139.78704 307 ft 117 kts 205°
2026-05-01 07:43 35.57257 139.78158 221 ft 121 kts 210°
2026-05-01 07:43 35.56580 139.77565 69 ft 117 kts 213°
2026-05-01 07:43 35.55658 139.76780 33 ft 6 kts 215°
2026-05-01 07:44 35.55406 139.76638 30 ft 25 kts 190°
2026-05-01 07:44 35.55351 139.76626 29 ft 0 kts 188°
2026-05-01 07:45 35.55348 139.76626 29 ft 1 kts 187°
2026-05-01 07:45 35.55308 139.76639 28 ft 0 kts 160°
2026-05-01 07:45 35.55293 139.76645 28 ft 11 kts 160°
2026-05-01 07:46 35.55217 139.76652 29 ft 10 kts 203°
2026-05-01 07:46 35.55161 139.76627 30 ft 7 kts 173°
2026-05-01 07:46 35.55143 139.76672 30 ft 0 kts 89°
2026-05-01 07:47 35.55149 139.76698 30 ft 14 kts 67°
2026-05-01 07:47 35.55181 139.76773 30 ft 15 kts 59°
2026-05-01 07:47 35.55203 139.76819 29 ft 1 kts 59°
2026-05-01 07:47 35.55212 139.76838 29 ft 5 kts 59°
2026-05-01 07:48 35.55278 139.76976 28 ft 6 kts 59°
2026-05-01 07:48 35.55307 139.77039 28 ft 10 kts 66°
2026-05-01 07:48 35.55298 139.77139 27 ft 14 kts 127°
2026-05-01 07:49 35.55219 139.77205 28 ft 14 kts 150°
2026-05-01 07:49 35.55013 139.77351 27 ft 19 kts 149°
2026-05-01 07:49 35.54894 139.77437 31 ft 21 kts 149°
2026-05-01 07:50 35.54766 139.77528 26 ft 22 kts 150°
2026-05-01 07:50 35.54561 139.77672 27 ft 0 kts 151°
2026-05-01 07:51 35.54509 139.77708 27 ft 27 kts 150°
2026-05-01 07:51 35.54417 139.77830 29 ft 17 kts 96°
2026-05-01 07:51 35.54467 139.77962 30 ft 17 kts 60°
2026-05-01 07:52 35.54612 139.78235 29 ft 19 kts 35°
2026-05-01 07:52 35.54683 139.78323 29 ft 8 kts 56°
2026-05-01 07:52 35.54690 139.78336 29 ft 0 kts 57°
2026-05-01 07:53 35.54720 139.78398 29 ft 0 kts 60°